Weather History for KDEC - April, 2014

Change the Weather History Date:

Monday, April 7, 2014

  Actual Average Record
Temperature  
Mean Temperature 45 °F 50 °F  
Max Temperature 50 °F 61 °F - ()
Min Temperature 39 °F 39 °F - ()
Degree Days  
Heating Degree Days 20 16  
Month to date heating degree days 123 117  
Since 1 July heating degree days 5821 5101  
Cooling Degree Days 0 0  
Month to date cooling degree days 0 0  
Year to date cooling degree days 0 1  
Moisture  
Dew Point 40 °F    
Average Humidity 75    
Maximum Humidity 93    
Minimum Humidity 56    
Precipitation  
Precipitation 0.52 in 0.11 in - ()
Month to date precipitation 2.11 0.70  
Year to date precipitation 4.72 7.06  
Sea Level Pressure  
Sea Level Pressure 29.71 in    
Wind  
Wind Speed 8 mph (North)    
Max Wind Speed 20 mph    
Max Gust Speed 27 mph    
Visibility 8 miles    
Events Rain    
T = Trace of Precipitation, MM = Missing Value Source: NWS Daily Summary

Daily Weather History Graph

Daily Weather History Graph

Search for Another Location

Airport or City:

Trip Planner

Search our weather history database for the weather conditions in past years. The results will help you decide how hot, cold, wet, or windy it might be!

Date:

Astronomy

Apr. 07, 2014 Rise Set
Actual Time 6:30 AM CDT 7:25 PM CDT
Civil Twilight 6:02 AM CDT 7:53 PM CDT
Nautical Twilight 5:29 AM CDT 8:26 PM CDT
Astronomical Twilight 4:56 AM CDT 9:00 PM CDT
Moon 12:26 PM CDT (4/7) 2:02 AM CDT (4/7)
Length of Visible Light 13h 50m
Length of Day
12h 55m
First Quarter, 53% of the Moon is Illuminated
Apr 7
First Quarter
Apr 15
Full
Apr 22
Last Quarter
Apr 29
New
May 6
First Quarter

Hourly Weather History & Observations

Time (CDT) Temp. Windchill Dew Point Humidity Pressure Visibility Wind Dir Wind Speed Gust Speed Precip Events Conditions
12:54 AM 39.0 °F 34.8 °F 34.0 °F 82% 29.88 in 10.0 mi ENE 5.8 mph - N/A   Clear
1:54 AM 41.0 °F 35.8 °F 36.0 °F 82% 29.83 in 10.0 mi NE 8.1 mph - N/A   Clear
2:54 AM 41.0 °F 38.0 °F 37.0 °F 86% 29.79 in 10.0 mi NE 4.6 mph - N/A   Partly Cloudy
3:54 AM 42.1 °F 39.2 °F 37.0 °F 82% 29.79 in 10.0 mi NE 4.6 mph - N/A   Overcast
4:54 AM 43.0 °F 40.3 °F 36.0 °F 76% 29.80 in 10.0 mi NNE 4.6 mph - N/A   Overcast
5:54 AM 43.0 °F 37.7 °F 37.0 °F 80% 29.78 in 10.0 mi NNE 9.2 mph - N/A   Overcast
6:54 AM 42.1 °F 38.4 °F 37.0 °F 82% 29.77 in 10.0 mi NE 5.8 mph - N/A   Overcast
7:54 AM 45.0 °F 41.2 °F 37.0 °F 74% 29.75 in 10.0 mi NNE 6.9 mph - N/A   Overcast
8:54 AM 46.0 °F 41.0 °F 37.9 °F 73% 29.71 in 10.0 mi NNE 10.4 mph - N/A   Overcast
9:54 AM 48.0 °F - 37.9 °F 68% 29.67 in 10.0 mi NE 15.0 mph - N/A   Overcast
10:54 AM 50.0 °F - 36.0 °F 59% 29.66 in 10.0 mi NNE 13.8 mph - N/A   Overcast
11:54 AM 46.0 °F 40.6 °F 39.0 °F 76% 29.67 in 4.0 mi North 11.5 mph - 0.04 in   Haze
12:11 PM 46.0 °F 39.0 °F 41.0 °F 83% 29.66 in 2.0 mi North 17.3 mph 24.2 mph 0.07 in Rain Heavy Rain
12:19 PM 46.0 °F 38.8 °F 42.1 °F 86% 29.66 in 1.8 mi North 18.4 mph 26.5 mph 0.10 in Rain Rain
12:34 PM 46.0 °F 39.0 °F 43.0 °F 89% 29.66 in 2.5 mi North 17.3 mph - 0.13 in Rain Rain
12:41 PM 46.0 °F 39.3 °F 43.0 °F 89% 29.66 in 4.0 mi North 16.1 mph - 0.15 in Rain Rain
12:54 PM 46.0 °F 40.2 °F 43.0 °F 89% 29.67 in 4.0 mi North 12.7 mph - 0.17 in Rain Rain
1:54 PM 46.0 °F 39.9 °F 44.1 °F 93% 29.66 in 8.0 mi North 13.8 mph - 0.06 in Rain Light Rain
3:54 PM 46.9 °F - 43.0 °F 86% 29.65 in 8.0 mi North 6.9 mph - 0.04 in Rain Light Rain
4:54 PM 46.9 °F - 42.1 °F 83% 29.65 in 10.0 mi NNW 5.8 mph - 0.01 in   Overcast
5:54 PM 48.0 °F - 41.0 °F 77% 29.65 in 10.0 mi North 4.6 mph - N/A   Overcast
6:54 PM 46.9 °F - 42.1 °F 83% 29.66 in 10.0 mi West 3.5 mph - N/A   Overcast
7:54 PM 46.0 °F 43.9 °F 43.0 °F 89% 29.67 in 10.0 mi SW 4.6 mph - N/A   Overcast
8:54 PM 46.0 °F 42.5 °F 42.1 °F 86% 29.70 in 10.0 mi WSW 6.9 mph - N/A   Overcast
9:54 PM 48.9 °F - 39.0 °F 69% 29.72 in 10.0 mi West 8.1 mph - N/A   Overcast
10:54 PM 46.9 °F - 42.1 °F 83% 29.73 in 6.0 mi Calm Calm - 0.04 in Rain Light Rain
11:54 PM 46.0 °F - 43.0 °F 89% 29.75 in 6.0 mi Calm Calm - 0.02 in Rain Rain